Weather History for Bogalusa, LA

Change the Weather History Date:

Friday, March 7, 2014

  Actual Average Record
Temperature  
Mean Temperature 54 °F -  
Max Temperature 64 °F 67 °F 64 °F (2014)
Min Temperature 44 °F 42 °F 32 °F (2013)
Degree Days  
Heating Degree Days 11    
Growing Degree Days 4 (Base 50)    
Moisture  
Dew Point 44 °F    
Average Humidity 76    
Maximum Humidity 90    
Minimum Humidity 48    
Precipitation  
Precipitation 0.00 in - - ()
Sea Level Pressure  
Sea Level Pressure 30.07 in    
Wind  
Wind Speed 3 mph (NW)    
Max Wind Speed 7 mph    
Max Gust Speed -    
Visibility 8 miles    
Events Thunderstorm    
Averages and records for this station are not official NWS values.
T = Trace of Precipitation, MM = Missing Value Source: NWS Daily Summary

Daily Weather History Graph

Daily Weather History Graph

Search for Another Location

Airport:

Trip Planner

Search our weather history database for the weather conditions in past years. The results will help you decide how hot, cold, wet, or windy it might be!

Date:

Astronomy

Mar. 07, 2014 Rise Set
Actual Time 6:19 AM CST 6:02 PM CST
Civil Twilight 5:54 AM CST 6:26 PM CST
Nautical Twilight 5:26 AM CST 6:54 PM CST
Astronomical Twilight 4:59 AM CST 7:22 PM CST
Moon 10:36 AM CST (3/7) No Moon Set
Length of Visible Light 12h 31m
Length of Day
11h 43m
Waxing Crescent, 42% of the Moon is Illuminated
Mar 7
Waxing Crescent
Mar 8
First Quarter
Mar 16
Full
Mar 23
Last Quarter
Mar 30
New

Hourly Weather History & Observations

Time (CST) Temp. Windchill Dew Point Humidity Pressure Visibility Wind Dir Wind Speed Gust Speed Precip Events Conditions
12:15 AM 45.1 °F 43.7 °F 41.9 °F 88% 30.04 in 5.0 mi NNW 3.5 mph - N/A   Overcast
12:35 AM 45.1 °F 43.7 °F 41.9 °F 88% 30.05 in 5.0 mi NW 3.5 mph - N/A   Overcast
12:55 AM 45.0 °F 43.5 °F 41.9 °F 89% 30.05 in 4.0 mi WNW 3.5 mph - N/A   Overcast
1:15 AM 44.8 °F 41.6 °F 41.9 °F 90% 30.06 in 4.0 mi NW 5.8 mph - N/A   Overcast
1:35 AM 45.0 °F 43.5 °F 41.9 °F 89% 30.06 in 5.0 mi NW 3.5 mph - N/A   Overcast
1:55 AM 45.0 °F 43.5 °F 41.9 °F 89% 30.06 in 5.0 mi NW 3.5 mph - N/A   Overcast
2:15 AM 45.0 °F 43.5 °F 41.9 °F 89% 30.06 in 7.0 mi NNW 3.5 mph - N/A   Overcast
2:35 AM 45.1 °F 42.0 °F 41.9 °F 88% 30.06 in 7.0 mi NNW 5.8 mph - N/A   Overcast
2:55 AM 45.1 °F 42.0 °F 41.9 °F 88% 30.05 in 7.0 mi North 5.8 mph - N/A   Overcast
3:15 AM 45.5 °F 43.2 °F 41.9 °F 87% 30.05 in 7.0 mi NNW 4.6 mph - N/A   Overcast
3:35 AM 45.5 °F 42.5 °F 41.9 °F 87% 30.05 in 7.0 mi NNW 5.8 mph - N/A   Overcast
3:55 AM 45.5 °F 43.2 °F 41.9 °F 87% 30.05 in 7.0 mi NNW 4.6 mph - N/A   Overcast
4:15 AM 45.5 °F 42.5 °F 41.9 °F 87% 30.05 in 7.0 mi North 5.8 mph - N/A   Overcast
4:35 AM 45.5 °F 42.5 °F 41.9 °F 87% 30.05 in 7.0 mi NNW 5.8 mph - N/A   Overcast
5:00 AM 44.8 °F 43.3 °F 41.4 °F 88% 30.05 in 7.0 mi North 3.5 mph - N/A   Overcast
5:15 AM 45.1 °F 43.7 °F 41.9 °F 88% 30.06 in 7.0 mi North 3.5 mph - N/A   Overcast
5:35 AM 45.1 °F 43.7 °F 41.9 °F 88% 30.06 in 5.0 mi NNW 3.5 mph - N/A   Overcast
5:55 AM 45.1 °F 43.7 °F 41.9 °F 88% 30.07 in 7.0 mi NNW 3.5 mph - N/A Thunderstorm Overcast
6:15 AM 45.3 °F 42.3 °F 41.9 °F 88% 30.08 in 5.0 mi NNW 5.8 mph - N/A   Overcast
6:35 AM 45.1 °F 42.0 °F 41.7 °F 88% 30.08 in 7.0 mi NNE 5.8 mph - N/A   Overcast
6:55 AM 45.0 °F 41.2 °F 41.4 °F 87% 30.08 in 5.0 mi NNE 6.9 mph - N/A   Overcast
7:15 AM 44.6 °F 41.4 °F 41.2 °F 88% 30.08 in 4.0 mi North 5.8 mph - N/A   Overcast
7:35 AM 44.8 °F 42.4 °F 41.4 °F 88% 30.08 in 4.0 mi NNE 4.6 mph - N/A   Overcast
7:55 AM 45.3 °F 43.0 °F 41.7 °F 87% 30.10 in 5.0 mi NNE 4.6 mph - N/A   Overcast
8:15 AM 45.7 °F - 41.9 °F 87% 30.11 in 5.0 mi Calm Calm - N/A   Overcast
8:35 AM 46.0 °F - 42.1 °F 86% 30.12 in 5.0 mi Calm Calm - N/A   Overcast
8:55 AM 47.1 °F - 42.6 °F 84% 30.11 in 7.0 mi Calm Calm - N/A   Mostly Cloudy
9:15 AM 47.8 °F - 42.8 °F 83% 30.12 in 10.0 mi Calm Calm - N/A   Scattered Clouds
9:35 AM 49.8 °F - 43.2 °F 78% 30.12 in 10.0 mi Calm Calm - N/A   Clear
9:55 AM 50.7 °F - 43.3 °F 76% 30.12 in 10.0 mi Calm Calm - N/A   Unknown
10:15 AM 51.3 °F - 43.2 °F 74% 30.11 in 10.0 mi Calm Calm - N/A   Unknown
10:35 AM 52.5 °F - 43.3 °F 71% 30.12 in 10.0 mi Calm Calm - N/A   Unknown
10:55 AM 53.1 °F - 43.2 °F 69% 30.12 in 10.0 mi Calm Calm - N/A   Unknown
11:15 AM 55.8 °F - 44.1 °F 65% 30.12 in 10.0 mi Calm Calm - N/A   Unknown
11:35 AM 55.6 °F - 44.4 °F 66% 30.11 in 10.0 mi NNW 3.5 mph - N/A   Unknown
12:00 PM 58.8 °F - 45.0 °F 60% 30.11 in 10.0 mi Calm Calm - N/A   Unknown
12:15 PM 58.8 °F - 43.5 °F 57% 30.10 in 10.0 mi Calm Calm - N/A   Unknown
12:35 PM 59.7 °F - 44.8 °F 58% 30.09 in 10.0 mi ENE 4.6 mph - N/A   Unknown
12:55 PM 60.8 °F - 45.0 °F 56% 30.08 in 10.0 mi Calm Calm - N/A   Unknown
1:15 PM 61.5 °F - 45.5 °F 56% 30.06 in 10.0 mi NW 5.8 mph - N/A   Unknown
1:35 PM 61.7 °F - 44.2 °F 53% 30.07 in 10.0 mi Calm Calm - N/A   Unknown
1:55 PM 61.3 °F - 43.7 °F 52% 30.06 in 10.0 mi Calm Calm - N/A   Unknown
2:15 PM 63.5 °F - 44.6 °F 50% 30.05 in 10.0 mi SSE 3.5 mph - N/A   Unknown
2:35 PM 63.0 °F - 44.6 °F 51% 30.05 in 10.0 mi NW 4.6 mph - N/A   Unknown
2:55 PM 63.0 °F - 44.2 °F 50% 30.05 in 10.0 mi Calm Calm - N/A   Unknown
3:15 PM 63.9 °F - 44.4 °F 49% 30.04 in 10.0 mi Calm Calm - N/A   Unknown
3:35 PM 63.5 °F - 44.2 °F 49% 30.03 in 10.0 mi Calm Calm - N/A   Unknown
3:55 PM 63.7 °F - 44.4 °F 50% 30.02 in 10.0 mi Calm Calm - N/A   Unknown
4:15 PM 63.9 °F - 44.2 °F 49% 30.03 in 10.0 mi Calm Calm - N/A   Unknown
4:35 PM 64.2 °F - 44.1 °F 48% 30.03 in 10.0 mi Calm Calm - N/A   Unknown
4:55 PM 63.5 °F - 43.9 °F 49% 30.02 in 10.0 mi Calm Calm - N/A   Unknown
5:15 PM 62.6 °F - 45.3 °F 53% 30.02 in 10.0 mi Calm Calm - N/A   Unknown
5:35 PM 60.4 °F - 47.5 °F 62% 30.02 in 10.0 mi Calm Calm - N/A   Unknown
5:55 PM 57.6 °F - 50.7 °F 78% 30.02 in 10.0 mi Calm Calm - N/A   Unknown
6:15 PM 57.2 °F - 50.0 °F 77% 30.03 in 10.0 mi SW 3.5 mph - N/A   Unknown
6:35 PM 55.4 °F - 49.6 °F 81% 30.03 in 10.0 mi Calm Calm - N/A   Unknown
6:55 PM 53.2 °F - 48.9 °F 85% 30.03 in 10.0 mi SW 3.5 mph - N/A   Unknown
7:15 PM 55.9 °F - 48.2 °F 75% 30.04 in 10.0 mi SW 5.8 mph - N/A   Unknown
7:35 PM 54.7 °F - 48.2 °F 79% 30.05 in 10.0 mi SSW 4.6 mph - N/A   Unknown
7:55 PM 54.0 °F - 47.5 °F 79% 30.05 in 10.0 mi SW 4.6 mph - N/A   Unknown
8:15 PM 53.6 °F - 47.5 °F 80% 30.07 in 10.0 mi SSW 5.8 mph - N/A   Unknown
8:35 PM 52.7 °F - 47.1 °F 81% 30.08 in 10.0 mi SW 4.6 mph - N/A   Unknown
8:55 PM 52.0 °F - 46.8 °F 82% 30.08 in 10.0 mi SW 4.6 mph - N/A   Unknown
9:15 PM 51.4 °F - 46.4 °F 83% 30.09 in 10.0 mi SSW 5.8 mph - N/A   Unknown
9:35 PM 50.7 °F - 46.0 °F 84% 30.10 in 10.0 mi Calm Calm - N/A   Unknown
9:55 PM 49.6 °F - 45.3 °F 85% 30.09 in 10.0 mi Calm Calm - N/A   Unknown
10:15 PM 49.5 °F - 45.5 °F 86% 30.09 in 10.0 mi Calm Calm - N/A   Unknown
10:35 PM 49.8 °F - 45.5 °F 85% 30.08 in 10.0 mi Calm Calm - N/A   Unknown
10:55 PM 48.2 °F - 44.6 °F 87% 30.08 in 10.0 mi Calm Calm - N/A   Unknown
11:15 PM 47.7 °F - 44.6 °F 89% 30.08 in 7.0 mi Calm Calm - N/A   Unknown
11:35 PM 47.5 °F - 44.4 °F 89% 30.08 in 7.0 mi Calm Calm - N/A   Unknown